This demonstration page uses our WeatherBlox Daily Observations layout. Learn more.

Left ArrowRight Arrow

39.08367, -84.50855

Hourly Observations for August 11, 2020

Temp ( °F °C ) Dew Point ( °F °C ) Humidity (%) Winds ( mph kmh ) Pressure ( in mb ) Visibility ( mi km ) Precip ( " mm )
12:53 am 00:53 Cloudy with Light Rain 69 20.6 68 20 96 96 SSE 3 6 29.99 1016 10 16 0.03 0.76
1:53 am 01:53 Partly Cloudy 69 20.6 67 19.4 93 93 S 5 7 29.89 1012 10 16 0.01 0.25
2:27 am 02:27 Partly Cloudy 70 21.1 67 19.4 90 90 SSW 6 9 29.90 1012 10 16 N/A
2:53 am 02:53 Clear 69 20.6 67 19.4 93 93 SW 3 6 29.89 1012 10 16 N/A
3:50 am 03:50 Mostly Clear 70 21 66 19 88 88 SSW 6 9 29.92 1013 10 16 N/A
3:53 am 03:53 Mostly Clear 68 20 67 19.4 96 96 SSW 5 7 29.92 1013 10 16 N/A
4:53 am 04:53 Mostly Clear 69 20.6 67 19.4 93 93 WNW 7 11 29.97 1015 10 16 N/A
5:07 am 05:07 Mostly Cloudy 69 20.6 67 19.4 93 93 WSW 7 11 29.97 1015 10 16 N/A
5:12 am 05:12 Partly Cloudy 69 20.6 67 19.4 93 93 N N/A 29.97 1015 10 16 N/A
5:53 am 05:53 Mostly Cloudy 70 21.1 67 19.4 90 90 VRB 3 6 29.98 1015 10 16 N/A
6:53 am 06:53 Mostly Sunny 69 20.6 66 18.9 90 90 S 6 9 29.98 1015 10 16 N/A
7:53 am 07:53 Partly Cloudy 71 21.7 67 19.4 87 87 WNW 3 6 29.98 1015 10 16 N/A
8:53 am 08:53 Mostly Cloudy 73 22.8 68 20 84 84 N N/A 30.00 1016 10 16 N/A
9:53 am 09:53 Mostly Cloudy 73 22.8 68 20 84 84 VRB 3 6 30.01 1016 10 16 N/A
10:02 am 10:02 Mostly Cloudy 73 22.8 67 19.4 81 81 NW 3 6 30.01 1016 10 16 N/A
10:39 am 10:39 Partly Cloudy 75 23.9 67 19.4 76 76 VRB 3 6 30.01 1016 10 16 N/A
10:53 am 10:53 Mostly Cloudy 75 23.9 68 20 79 79 WNW 3 6 30.02 1017 10 16 N/A
11:53 am 11:53 Cloudy 77 25 68 20 74 74 W 5 7 30.02 1017 10 16 N/A
12:53 pm 12:53 Partly Cloudy 79 26.1 68 20 69 69 N N/A 30.01 1016 10 16 N/A
1:53 pm 13:53 Mostly Cloudy 80 26.7 69 20.6 69 69 VRB 5 7 30.00 1016 10 16 N/A
2:53 pm 14:53 Partly Cloudy 83 28.3 70 21.1 65 65 S 7 11 29.98 1015 10 16 N/A
3:53 pm 15:53 Partly Cloudy 83 28.3 69 20.6 63 63 SE 6 9 29.97 1015 10 16 N/A
4:53 pm 16:53 Mostly Cloudy 83 28.3 71 21.7 67 67 S 9 15 29.96 1015 10 16 N/A
5:53 pm 17:53 Mostly Cloudy 82 27.8 71 21.7 69 69 S 6 9 29.96 1014 10 16 N/A
6:53 pm 18:53 Partly Cloudy 81 27.2 70 21.1 69 69 SSW 7 11 29.96 1014 10 16 N/A
7:53 pm 19:53 Sunny 81 27.2 70 21.1 69 69 SSW 5 7 29.95 1014 10 16 N/A
8:53 pm 20:53 Partly Cloudy 76 24.4 71 21.7 85 85 N N/A 29.97 1015 10 16 N/A
9:53 pm 21:53 Clear 73 22.8 70 21.1 90 90 N N/A 29.99 1016 10 16 N/A
10:53 pm 22:53 Clear 71 21.7 70 21.1 96 96 N N/A 30.00 1016 8 13 N/A
11:53 pm 23:53 Clear with Mist and Fog 71 21.7 69 20.6 94 94 N N/A 30.01 1016 5 8 N/A

Powered by AerisWeather